Kuantan, Malaysia

6:12 PM +08 on December 09, 2019 (GMT +0800)
Kuantan

Weather History for WMKD - August, 2019

Change the Weather History Date:

Thursday, August 8, 2019

  Actual Average Record
Temperature  
Mean Temperature 86 °F -  
Max Temperature 93 °F 90 °F - ()
Min Temperature 78 °F 72 °F - ()
Cooling Degree Days 20    
Growing Degree Days 36 (Base 50)    
Moisture  
Dew Point 77 °F    
Average Humidity 80    
Maximum Humidity 94    
Minimum Humidity 51    
Precipitation  
Precipitation 0.04 in 0.25 in - ()
Sea Level Pressure  
Sea Level Pressure 29.77 in    
Wind  
Wind Speed 2 mph ()    
Max Wind Speed 7 mph    
Max Gust Speed -    
Visibility 3.9 miles    
Events Rain    
T = Trace of Precipitation, MM = Missing Value Source: Averaged Metar Reports

Daily Weather History Graph

Daily Weather History Graph

Search for Another Location

Airport or City:

Astronomy

Aug. 08, 2019 Rise Set
Actual Time 7:05 AM +08 7:20 PM +08
Civil Twilight 6:43 AM +08 7:42 PM +08
Nautical Twilight 6:18 AM +08 8:07 PM +08
Astronomical Twilight 5:52 AM +08 8:32 PM +08
Moon 1:27 PM +08 (8/8) 12:53 AM +08 (8/8)
Length of Visible Light 12h 58m
Length of Day
12h 15m
First Quarter, 55% of the Moon is Illuminated
Aug 8
First Quarter
Aug 15
Full
Aug 23
Last Quarter
Aug 30
New
Sep 6
First Quarter

Hourly Weather History & Observations

Time (+08) Temp. Heat Index Dew Point Humidity Pressure Visibility Wind Dir Wind Speed Gust Speed Precip Events Conditions
12:00 AM 82.4 °F 92.4 °F 78.8 °F 89% 29.80 in 3.7 mi Calm Calm - N/A   Mostly Cloudy
1:00 AM 82.4 °F 92.4 °F 78.8 °F 89% 29.80 in 3.7 mi Calm Calm - N/A   Mostly Cloudy
2:00 AM 81 °F - 78 °F 88% 29.80 in 4 mi Calm Calm - -   Haze
2:00 AM 80.6 °F 88.1 °F 78.8 °F 94% 29.80 in 3.7 mi Calm Calm - N/A   Mostly Cloudy
3:00 AM 80.6 °F 87.1 °F 77.0 °F 89% 29.77 in 3.7 mi Calm Calm - N/A   Mostly Cloudy
4:00 AM 80.6 °F 87.1 °F 77.0 °F 89% 29.77 in 3.7 mi Calm Calm - N/A   Mostly Cloudy
5:00 AM 80.6 °F 87.1 °F 77.0 °F 89% 29.77 in 3.7 mi Variable 2.3 mph - N/A   Mostly Cloudy
6:00 AM 78.8 °F - 77.0 °F 94% 29.77 in 2.5 mi Calm Calm - N/A   Haze
7:00 AM 78.8 °F - 77.0 °F 94% 29.80 in 1.2 mi Variable 1.2 mph - N/A   Haze
8:00 AM 79 °F - 76 °F 87% 29.81 in 1 mi SSW 3.5 mph - -   Haze
8:00 AM 78.8 °F - 75.2 °F 89% 29.80 in 1.2 mi Variable 3.5 mph - N/A   Haze
9:00 AM 80.6 °F 86.2 °F 75.2 °F 84% 29.83 in 0.6 mi Variable 3.5 mph - N/A   Haze
10:00 AM 84.2 °F 94.1 °F 77.0 °F 79% 29.83 in 0.6 mi Variable 3.5 mph - N/A   Haze
11:00 AM 86 °F - 78 °F 70% 29.83 in 1 mi South 4.6 mph - -   Haze
11:00 AM 86.0 °F 96.9 °F 77.0 °F 74% 29.83 in 1.2 mi Variable 4.6 mph - N/A   Haze
12:00 PM 87.8 °F 99.7 °F 77.0 °F 70% 29.80 in 2.5 mi Variable 5.8 mph - N/A   Haze
1:00 PM 91.4 °F 107.2 °F 78.8 °F 66% 29.77 in 4.3 mi Variable 5.8 mph - N/A   Mostly Cloudy
2:00 PM 91 °F - 78 °F 57% 29.75 in 6 mi South 4.6 mph - -   Haze
2:00 PM 91.4 °F 105.1 °F 77.0 °F 63% 29.74 in 5.6 mi Variable 4.6 mph - N/A   Mostly Cloudy
3:00 PM 91.4 °F 105.1 °F 77.0 °F 63% 29.71 in 6.2 mi Variable 3.5 mph - N/A   Mostly Cloudy
4:00 PM 91.4 °F 105.1 °F 77.0 °F 63% 29.68 in 6.2 mi Variable 3.5 mph - N/A   Mostly Cloudy
5:00 PM 92 °F - 76 °F 51% 29.70 in 7 mi SSE 3.5 mph - -   Haze
5:00 PM 91.4 °F 102.5 °F 75.2 °F 59% 29.68 in 6.2 mi Variable 3.5 mph - N/A   Mostly Cloudy
7:00 PM 86.0 °F 99.3 °F 78.8 °F 79% 29.71 in 6.2 mi Variable 3.5 mph - N/A   Mostly Cloudy
8:00 PM 84 °F - 79 °F 80% 29.73 in 6 mi SSE 2.3 mph - -   Partly Cloudy
8:00 PM 84.2 °F 96.1 °F 78.8 °F 84% 29.71 in 5.6 mi Variable 2.3 mph - N/A   Mostly Cloudy
9:00 PM 82.4 °F 92.4 °F 78.8 °F 89% 29.74 in 5.0 mi Variable 2.3 mph - N/A   Mostly Cloudy
10:00 PM 80.6 °F 87.1 °F 77.0 °F 89% 29.77 in 4.3 mi West 6.9 mph - N/A Rain Rain
11:00 PM 80 °F - 78 °F 90% 29.79 in 5 mi Calm Calm - - Rain Light Rain
11:00 PM 80.6 °F 87.1 °F 77.0 °F 89% 29.77 in 5.0 mi Calm Calm - N/A Rain Light Rain